Kalamazoo, MI

10:59 AM EDT on May 29, 2017 (GMT -0400)
Kalamazoo-Battle Creek International

Weather History for KAZO - February, 2014

Change the Weather History Date:

Thursday, February 13, 2014

  Actual Average Record
Temperature  
Mean Temperature 18 °F 26 °F  
Max Temperature 29 °F 33 °F 57 °F (1984)
Min Temperature 7 °F 19 °F -6 °F (2016)
Degree Days  
Heating Degree Days 47 39  
Month to date heating degree days 684 515  
Since 1 July heating degree days 4514 4223  
Cooling Degree Days 0 0  
Month to date cooling degree days 0 0  
Year to date cooling degree days 0 0  
Moisture  
Dew Point 11 °F    
Average Humidity 61    
Maximum Humidity 80    
Minimum Humidity 42    
Precipitation  
Precipitation T in 0.05 in 1.15 in (1949)
Month to date precipitation 0.35 0.60  
Year to date precipitation 1.47 2.39  
Sea Level Pressure  
Sea Level Pressure 29.77 in    
Wind  
Wind Speed 7 mph (South)    
Max Wind Speed 18 mph    
Max Gust Speed 23 mph    
Visibility 9 miles    
Events Snow    
T = Trace of Precipitation, MM = Missing Value Source: NWS Daily Summary

Daily Weather History Graph

Daily Weather History Graph

Search for Another Location

Airport or City:

Trip Planner

Search our weather history database for the weather conditions in past years. The results will help you decide how hot, cold, wet, or windy it might be!

Date:

Astronomy

Feb. 13, 2014 Rise Set
Actual Time 7:41 AM EST 6:12 PM EST
Civil Twilight 7:12 AM EST 6:41 PM EST
Nautical Twilight 6:39 AM EST 7:14 PM EST
Astronomical Twilight 6:06 AM EST 7:46 PM EST
Moon 5:20 PM EST (2/13) 6:34 AM EST (2/13)
Length of Visible Light 11h 28m
Length of Day
10h 31m
Waxing Gibbous, 98% of the Moon is Illuminated
Feb 13
Waxing Gibbous
Feb 14
Full
Feb 22
Last Quarter
Mar 1
New
Mar 8
First Quarter

Hourly Weather History & Observations

Time (EST) Temp. Windchill Dew Point Humidity Pressure Visibility Wind Dir Wind Speed Gust Speed Precip Events Conditions
12:53 AM 17.1 °F 11.7 °F 6.1 °F 62% 30.08 in 10.0 mi South 3.5 mph - N/A   Overcast
1:53 AM 17.1 °F 10.0 °F 6.1 °F 62% 30.07 in 10.0 mi SSE 4.6 mph - N/A   Overcast
2:53 AM 17.1 °F 8.7 °F 5.0 °F 59% 30.07 in 10.0 mi SSE 5.8 mph - N/A   Overcast
3:53 AM 16.0 °F 10.4 °F 5.0 °F 62% 30.06 in 10.0 mi SSE 3.5 mph - N/A   Overcast
4:53 AM 16.0 °F 8.8 °F 6.1 °F 65% 30.03 in 10.0 mi SSE 4.6 mph - N/A   Overcast
5:53 AM 16.0 °F 10.4 °F 6.1 °F 65% 30.01 in 10.0 mi SSE 3.5 mph - N/A   Overcast
6:53 AM 10.9 °F - 3.0 °F 70% 29.99 in 10.0 mi Calm Calm - N/A   Clear
7:53 AM 9.0 °F 2.4 °F 3.0 °F 77% 29.97 in 8.0 mi SE 3.5 mph - N/A   Clear
8:53 AM 12.0 °F - 3.9 °F 70% 29.97 in 7.0 mi Calm Calm - N/A   Clear
9:53 AM 17.1 °F 6.6 °F 6.1 °F 62% 29.94 in 10.0 mi South 8.1 mph - N/A   Clear
10:53 AM 19.9 °F 12.1 °F 6.1 °F 55% 29.91 in 10.0 mi SSE 5.8 mph - N/A   Clear
11:53 AM 24.1 °F 14.4 °F 6.1 °F 46% 29.88 in 10.0 mi SSE 9.2 mph - N/A   Clear
12:53 PM 25.0 °F 16.3 °F 6.1 °F 45% 29.83 in 10.0 mi SSE 8.1 mph 17.3 mph N/A   Clear
1:53 PM 27.0 °F 18.7 °F 8.1 °F 45% 29.80 in 10.0 mi SSE 8.1 mph - N/A   Clear
2:53 PM 28.0 °F 18.6 °F 9.0 °F 45% 29.75 in 10.0 mi South 10.4 mph - N/A   Scattered Clouds
3:53 PM 28.0 °F 19.3 °F 8.1 °F 43% 29.72 in 10.0 mi South 9.2 mph - N/A   Overcast
4:28 PM 27.0 °F 14.3 °F 12.0 °F 53% 29.66 in 1.5 mi South 17.3 mph 21.9 mph 0.00 in Snow Light Snow
4:44 PM 26.1 °F 14.0 °F 17.1 °F 69% 29.64 in 3.0 mi South 15.0 mph 23.0 mph 0.00 in Snow Light Snow
4:53 PM 26.1 °F 13.6 °F 15.1 °F 63% 29.68 in 2.0 mi South 16.1 mph - 0.00 in Snow Light Snow
5:00 PM 25.0 °F 11.7 °F 18.0 °F 75% 29.64 in 2.0 mi South 17.3 mph - 0.00 in Snow Light Snow
5:13 PM 24.1 °F 15.2 °F 18.0 °F 77% 29.63 in 5.0 mi South 8.1 mph - 0.00 in Snow Light Snow
5:42 PM 25.0 °F 17.1 °F 18.0 °F 75% 29.61 in 10.0 mi SSE 6.9 mph - 0.00 in   Overcast
5:53 PM 26.1 °F 18.4 °F 18.0 °F 71% 29.65 in 10.0 mi SSE 6.9 mph - 0.00 in   Overcast
6:53 PM 27.0 °F 19.5 °F 16.0 °F 63% 29.64 in 10.0 mi South 6.9 mph - N/A   Overcast
7:53 PM 28.0 °F 17.0 °F 12.9 °F 53% 29.61 in 10.0 mi South 13.8 mph - N/A   Overcast
8:53 PM 27.0 °F 16.7 °F 14.0 °F 58% 29.58 in 10.0 mi South 11.5 mph - N/A   Overcast
9:53 PM 27.0 °F 18.0 °F 15.1 °F 61% 29.55 in 10.0 mi South 9.2 mph - N/A   Overcast
10:34 PM 27.0 °F 18.0 °F 15.1 °F 61% 29.49 in 10.0 mi South 9.2 mph - N/A   Overcast
10:53 PM 27.0 °F 19.5 °F 16.0 °F 63% 29.52 in 10.0 mi South 6.9 mph - N/A   Overcast
11:31 PM 27.0 °F 19.5 °F 17.1 °F 66% 29.47 in 9.0 mi South 6.9 mph - 0.00 in   Overcast
11:53 PM 27.0 °F 20.5 °F 18.0 °F 69% 29.50 in 8.0 mi South 5.8 mph - 0.00 in   Overcast